• In Netherlands
  • List of Countries
  • For 7 days
  • Water Temperature
  • Satellite Maps
  • Weather Map
  • Weather Widgets
  • user-avatar
    Login

    Hourly Weather Wurzburg

    Today, 21 October, Sunday

    Time Temperature Precipitation Wind Pressure Humidity
    00:00 +8°C° 0 mm 1 mps 754 mmHg 88%
    01:00 +8°C° 0 mm 1 mps 754 mmHg 90%
    02:00 +8°C° 0 mm 1 mps 754 mmHg 91%
    03:00 +7°C° 0 mm 1 mps 754 mmHg 91%
    04:00 +7°C° 0 mm 1 mps 754 mmHg 92%
    05:00 +7°C° 0 mm 1 mps 754 mmHg 92%
    06:00 +7°C° 0 mm 1 mps 754 mmHg 92%
    07:00 +7°C° 0 mm 1 mps 754 mmHg 92%
    08:00 +9°C° 0 mm 1 mps 754 mmHg 83%
    09:00 +11°C° 0 mm 1 mps 754 mmHg 75%
    10:00 +13°C° 0 mm 2 mps 754 mmHg 66%
    11:00 +14°C° 0 mm 2 mps 754 mmHg 61%
    12:00 +15°C° 0 mm 2 mps 754 mmHg 56%
    13:00 +16°C° 0 mm 2 mps 753 mmHg 52%
    14:00 +16°C° 0 mm 2 mps 753 mmHg 53%
    15:00 +16°C° 0 mm 2 mps 753 mmHg 54%
    16:00 +15°C° 0 mm 1 mps 752 mmHg 55%
    17:00 +14°C° 0 mm 1 mps 752 mmHg 61%
    18:00 +12°C° 0 mm 1 mps 752 mmHg 67%
    19:00 +10°C° 0 mm 1 mps 752 mmHg 72%
    20:00 +9°C° 0 mm 1 mps 753 mmHg 75%
    21:00 +9°C° 0 mm 1 mps 753 mmHg 77%
    22:00 +8°C° 0 mm 1 mps 753 mmHg 79%
    23:00 +8°C° 0 mm 1 mps 753 mmHg 81%

    Tomorrow, 22 October, Monday

    Time Temperature Precipitation Wind Pressure Humidity
    00:00 +8°C° 0 mm 1 mps 753 mmHg 83%
    01:00 +7°C° 0 mm 1 mps 753 mmHg 85%
    02:00 +7°C° 0 mm 1 mps 753 mmHg 86%
    03:00 +7°C° 0 mm 1 mps 753 mmHg 87%
    04:00 +6°C° 0 mm 1 mps 752 mmHg 88%
    05:00 +6°C° 0 mm 1 mps 753 mmHg 88%
    06:00 +5°C° 0 mm 0 mps 753 mmHg 88%
    07:00 +5°C° 0 mm 0 mps 753 mmHg 89%
    08:00 +7°C° 0 mm 0 mps 753 mmHg 80%
    09:00 +9°C° 0 mm 0 mps 753 mmHg 71%
    10:00 +11°C° 0 mm 0 mps 754 mmHg 62%
    11:00 +13°C° 0 mm 1 mps 754 mmHg 60%
    12:00 +14°C° 0 mm 1 mps 754 mmHg 58%
    13:00 +15°C° 0 mm 2 mps 754 mmHg 57%
    14:00 +14°C° 0 mm 2 mps 754 mmHg 63%
    15:00 +13°C° 0 mm 2 mps 754 mmHg 69%
    16:00 +11°C° 0 mm 3 mps 754 mmHg 76%
    17:00 +11°C° 0.3 mm 3 mps 754 mmHg 80%
    18:00 +10°C° 0.3 mm 3 mps 755 mmHg 84%
    19:00 +10°C° 0.3 mm 3 mps 755 mmHg 89%
    20:00 +9°C° 0.1 mm 3 mps 756 mmHg 89%
    21:00 +9°C° 0.1 mm 3 mps 756 mmHg 88%
    22:00 +8°C° 0.1 mm 3 mps 756 mmHg 88%
    23:00 +7°C° 0 mm 3 mps 756 mmHg 90%

    Day after tomorrow, 23 October, Tuesday

    Time Temperature Precipitation Wind Pressure Humidity
    00:00 +6°C° 0 mm 2 mps 756 mmHg 91%
    01:00 +6°C° 0 mm 2 mps 756 mmHg 93%
    02:00 +5°C° 0 mm 2 mps 756 mmHg 93%
    03:00 +5°C° 0 mm 2 mps 756 mmHg 93%
    04:00 +5°C° 0 mm 1 mps 756 mmHg 94%
    05:00 +5°C° 0 mm 1 mps 756 mmHg 93%
    06:00 +5°C° 0 mm 1 mps 755 mmHg 93%
    07:00 +4°C° 0 mm 1 mps 755 mmHg 93%
    08:00 +5°C° 0 mm 2 mps 755 mmHg 87%
    09:00 +6°C° 0 mm 2 mps 755 mmHg 81%
    10:00 +8°C° 0 mm 3 mps 755 mmHg 74%
    11:00 +8°C° 0 mm 4 mps 754 mmHg 70%
    12:00 +9°C° 0 mm 5 mps 753 mmHg 65%
    13:00 +10°C° 0 mm 5 mps 753 mmHg 60%
    14:00 +10°C° 0 mm 5 mps 752 mmHg 61%
    15:00 +10°C° 0 mm 5 mps 752 mmHg 62%
    16:00 +10°C° 0 mm 6 mps 751 mmHg 63%
    17:00 +10°C° 0 mm 6 mps 751 mmHg 66%
    18:00 +10°C° 0 mm 6 mps 751 mmHg 69%
    19:00 +10°C° 0 mm 6 mps 751 mmHg 72%
    20:00 +10°C° 0.1 mm 6 mps 750 mmHg 74%
    21:00 +10°C° 0.1 mm 6 mps 750 mmHg 77%
    22:00 +10°C° 0.1 mm 7 mps 750 mmHg 80%
    23:00 +10°C° 0.2 mm 7 mps 750 mmHg 82%

    24 October, Wednesday

    Time Temperature Precipitation Wind Pressure Humidity
    00:00 +10°C° 0.2 mm 7 mps 750 mmHg 84%
    01:00 +10°C° 0.2 mm 7 mps 749 mmHg 86%
    02:00 +10°C° 0.3 mm 7 mps 749 mmHg 86%
    03:00 +10°C° 0.3 mm 7 mps 749 mmHg 87%
    04:00 +11°C° 0.3 mm 7 mps 749 mmHg 88%
    05:00 +11°C° 0.5 mm 7 mps 749 mmHg 89%
    06:00 +11°C° 0.5 mm 6 mps 749 mmHg 90%
    07:00 +11°C° 0.5 mm 6 mps 749 mmHg 90%
    08:00 +11°C° 0.6 mm 6 mps 749 mmHg 91%
    09:00 +11°C° 0.6 mm 6 mps 749 mmHg 91%
    10:00 +13°C° 0.6 mm 6 mps 749 mmHg 91%
    11:00 +13°C° 0.5 mm 6 mps 749 mmHg 91%
    12:00 +13°C° 0.5 mm 6 mps 749 mmHg 90%
    13:00 +13°C° 0.5 mm 6 mps 749 mmHg 90%
    14:00 +13°C° 0.3 mm 6 mps 749 mmHg 90%
    15:00 +13°C° 0.3 mm 6 mps 749 mmHg 90%
    16:00 +13°C° 0.3 mm 5 mps 749 mmHg 90%
    17:00 +13°C° 0.1 mm 5 mps 749 mmHg 90%
    18:00 +13°C° 0.1 mm 5 mps 749 mmHg 91%
    19:00 +13°C° 0.1 mm 5 mps 750 mmHg 91%
    20:00 +13°C° 0.1 mm 4 mps 750 mmHg 91%
    21:00 +13°C° 0.1 mm 4 mps 750 mmHg 92%
    22:00 +13°C° 0.1 mm 4 mps 750 mmHg 92%
    23:00 +13°C° 0.1 mm 4 mps 750 mmHg 93%

    25 October, Thursday

    Time Temperature Precipitation Wind Pressure Humidity
    00:00 +13°C° 0.1 mm 4 mps 750 mmHg 93%
    01:00 +12°C° 0.1 mm 4 mps 750 mmHg 94%
    02:00 +12°C° 0.1 mm 3 mps 750 mmHg 95%
    03:00 +12°C° 0.1 mm 3 mps 750 mmHg 95%
    04:00 +12°C° 0.1 mm 3 mps 750 mmHg 96%
    05:00 +11°C° 0 mm 3 mps 749 mmHg 96%
    06:00 +11°C° 0 mm 3 mps 749 mmHg 97%
    07:00 +11°C° 0 mm 3 mps 749 mmHg 97%
    08:00 +12°C° 0 mm 3 mps 749 mmHg 93%
    09:00 +12°C° 0 mm 3 mps 749 mmHg 88%
    10:00 +13°C° 0 mm 4 mps 749 mmHg 84%
    11:00 +14°C° 0 mm 4 mps 748 mmHg 80%
    12:00 +14°C° 0 mm 4 mps 748 mmHg 76%
    13:00 +15°C° 0 mm 4 mps 747 mmHg 72%
    14:00 +16°C° 0 mm 3 mps 747 mmHg 73%
    15:00 +14°C° 0 mm 3 mps 747 mmHg 74%
    16:00 +14°C° 0 mm 3 mps 746 mmHg 75%
    17:00 +14°C° 0 mm 2 mps 746 mmHg 80%
    18:00 +13°C° 0 mm 2 mps 746 mmHg 84%
    19:00 +12°C° 0 mm 2 mps 746 mmHg 89%
    20:00 +10°C° 0 mm 2 mps 746 mmHg 91%
    21:00 +11°C° 0 mm 1 mps 745 mmHg 92%
    22:00 +10°C° 0 mm 1 mps 745 mmHg 93%
    23:00 +10°C° 0 mm 1 mps 745 mmHg 94%

    26 October, Friday

    Time Temperature Precipitation Wind Pressure Humidity
    00:00 +9°C° 0 mm 1 mps 744 mmHg 95%
    01:00 +9°C° 0 mm 1 mps 744 mmHg 95%
    02:00 +8°C° 0 mm 1 mps 743 mmHg 96%
    03:00 +8°C° 0 mm 1 mps 743 mmHg 96%
    04:00 +8°C° 0 mm 1 mps 742 mmHg 97%
    05:00 +8°C° 0 mm 1 mps 742 mmHg 97%
    06:00 +8°C° 0 mm 1 mps 741 mmHg 97%
    07:00 +7°C° 0 mm 1 mps 741 mmHg 97%
    08:00 +9°C° 0 mm 1 mps 741 mmHg 92%
    09:00 +9°C° 0 mm 2 mps 740 mmHg 87%
    10:00 +12°C° 0 mm 2 mps 740 mmHg 82%
    11:00 +13°C° 0 mm 2 mps 739 mmHg 74%
    12:00 +14°C° 0 mm 2 mps 739 mmHg 67%
    13:00 +14°C° 0 mm 3 mps 738 mmHg 59%
    14:00 +15°C° 0 mm 2 mps 737 mmHg 61%
    15:00 +15°C° 0 mm 2 mps 737 mmHg 62%
    16:00 +14°C° 0 mm 2 mps 736 mmHg 63%
    17:00 +13°C° 0 mm 2 mps 736 mmHg 68%
    18:00 +11°C° 0 mm 1 mps 736 mmHg 74%
    19:00 +10°C° 0 mm 1 mps 736 mmHg 79%
    20:00 +10°C° 0 mm 1 mps 736 mmHg 80%
    21:00 +10°C° 0 mm 1 mps 735 mmHg 81%
    22:00 +9°C° 0 mm 1 mps 735 mmHg 82%
    23:00 +9°C° 0 mm 1 mps 735 mmHg 83%
    Show more